Year,Month,Day,Hour,Minute,Value (Times are PST for temperature in C)
2019,05,23,00,00,16.60
2019,05,23,00,01,16.60
2019,05,23,00,02,16.60
2019,05,23,00,03,16.60
2019,05,23,00,04,16.60
2019,05,23,00,05,16.60
2019,05,23,00,06,16.60
2019,05,23,00,07,16.60
2019,05,23,00,08,16.60
2019,05,23,00,09,16.60
2019,05,23,00,10,16.60
2019,05,23,00,11,16.60
2019,05,23,00,12,16.60
2019,05,23,00,13,16.60
2019,05,23,00,14,16.60
2019,05,23,00,15,16.60
2019,05,23,00,16,16.60
2019,05,23,00,17,16.60
2019,05,23,00,18,16.60
2019,05,23,00,19,16.60
2019,05,23,00,20,16.60
2019,05,23,00,21,16.60
2019,05,23,00,22,16.60
2019,05,23,00,23,16.60
2019,05,23,00,24,16.60
2019,05,23,00,25,16.60
2019,05,23,00,26,16.60
2019,05,23,00,27,16.60
2019,05,23,00,28,16.60
2019,05,23,00,29,16.60
2019,05,23,00,30,16.60
2019,05,23,00,31,16.60
2019,05,23,00,32,16.60
2019,05,23,00,33,16.60
2019,05,23,00,34,16.60
2019,05,23,00,35,16.60
2019,05,23,00,36,16.60
2019,05,23,00,37,16.60
2019,05,23,00,38,16.50
2019,05,23,00,39,16.50
2019,05,23,00,40,16.50
2019,05,23,00,41,16.50
2019,05,23,00,42,16.50
2019,05,23,00,43,16.50
2019,05,23,00,44,16.50
2019,05,23,00,45,16.50
2019,05,23,00,46,16.50
2019,05,23,00,47,16.40
2019,05,23,00,48,16.40
2019,05,23,00,49,16.40
2019,05,23,00,50,16.40
2019,05,23,00,51,16.40
2019,05,23,00,52,16.40
2019,05,23,00,53,16.40
2019,05,23,00,54,16.40
2019,05,23,00,55,16.40
2019,05,23,00,56,16.40
2019,05,23,00,57,16.40
2019,05,23,00,58,16.40
2019,05,23,00,59,16.40
2019,05,23,01,00,16.40
2019,05,23,01,01,16.40
2019,05,23,01,02,16.40
2019,05,23,01,03,16.40
2019,05,23,01,04,16.40
2019,05,23,01,05,16.40
2019,05,23,01,06,16.40
2019,05,23,01,07,16.40
2019,05,23,01,08,16.40
2019,05,23,01,09,16.40
2019,05,23,01,10,16.40
2019,05,23,01,11,16.40
2019,05,23,01,12,16.40
2019,05,23,01,13,16.40
2019,05,23,01,14,16.40
2019,05,23,01,15,16.40
2019,05,23,01,16,16.40
2019,05,23,01,17,16.40
2019,05,23,01,18,16.40
2019,05,23,01,19,16.40
2019,05,23,01,20,16.40
2019,05,23,01,21,16.40
2019,05,23,01,22,16.40
2019,05,23,01,23,16.40
2019,05,23,01,24,16.40
2019,05,23,01,25,16.40
2019,05,23,01,26,16.40
2019,05,23,01,27,16.40
2019,05,23,01,28,16.40
2019,05,23,01,29,16.40
2019,05,23,01,30,16.40
2019,05,23,01,31,16.40
2019,05,23,01,32,16.40
2019,05,23,01,33,16.40
2019,05,23,01,34,16.40
2019,05,23,01,35,16.40
2019,05,23,01,36,16.40
2019,05,23,01,37,16.40
2019,05,23,01,38,16.40
2019,05,23,01,39,16.40
2019,05,23,01,40,16.40
2019,05,23,01,41,16.40
2019,05,23,01,42,16.40
2019,05,23,01,43,16.40
2019,05,23,01,44,16.30
2019,05,23,01,45,16.30
2019,05,23,01,46,16.30
2019,05,23,01,47,16.30
2019,05,23,01,48,16.30
2019,05,23,01,49,16.30
2019,05,23,01,50,16.30
2019,05,23,01,51,16.20
2019,05,23,01,52,16.20
2019,05,23,01,53,16.20
2019,05,23,01,54,16.20
2019,05,23,01,55,16.10
2019,05,23,01,56,16.10
2019,05,23,01,57,16.10
2019,05,23,01,58,16.00
2019,05,23,01,59,16.00
2019,05,23,02,00,16.00
2019,05,23,02,01,16.00
2019,05,23,02,02,15.90
2019,05,23,02,03,15.90
2019,05,23,02,04,15.90
2019,05,23,02,05,15.90
2019,05,23,02,06,15.80
2019,05,23,02,07,15.80
2019,05,23,02,08,15.80
2019,05,23,02,09,15.80
2019,05,23,02,10,15.80
2019,05,23,02,11,15.80
2019,05,23,02,12,15.70
2019,05,23,02,13,15.70
2019,05,23,02,14,15.70
2019,05,23,02,15,15.70
2019,05,23,02,16,15.70
2019,05,23,02,17,15.60
2019,05,23,02,18,15.60
2019,05,23,02,19,15.60
2019,05,23,02,20,15.60
2019,05,23,02,21,15.50
2019,05,23,02,22,15.50
2019,05,23,02,23,15.40
2019,05,23,02,24,15.40
2019,05,23,02,25,15.40
2019,05,23,02,26,15.30
2019,05,23,02,27,15.30
2019,05,23,02,28,15.30
2019,05,23,02,29,15.20
2019,05,23,02,30,15.20
2019,05,23,02,31,15.10
2019,05,23,02,32,15.10
2019,05,23,02,33,15.10
2019,05,23,02,34,15.10
2019,05,23,02,35,15.00
2019,05,23,02,36,15.00
2019,05,23,02,37,14.90
2019,05,23,02,38,14.80
2019,05,23,02,39,14.80
2019,05,23,02,40,14.80
2019,05,23,02,41,14.80
2019,05,23,02,42,14.70
2019,05,23,02,43,14.70
2019,05,23,02,44,14.70
2019,05,23,02,45,14.60
2019,05,23,02,46,14.50
2019,05,23,02,47,14.50
2019,05,23,02,48,14.50
2019,05,23,02,49,14.40
2019,05,23,02,50,14.40
2019,05,23,02,51,14.40
2019,05,23,02,52,14.40
2019,05,23,02,53,14.30
2019,05,23,02,54,14.30
2019,05,23,02,55,14.30
2019,05,23,02,56,14.30
2019,05,23,02,57,14.30
2019,05,23,02,58,14.30
2019,05,23,02,59,14.20
2019,05,23,03,00,14.20
2019,05,23,03,01,14.20
2019,05,23,03,02,14.20
2019,05,23,03,03,14.20
2019,05,23,03,04,14.10
2019,05,23,03,05,14.10
2019,05,23,03,06,14.10
2019,05,23,03,07,14.10
2019,05,23,03,08,14.00
2019,05,23,03,09,14.00
2019,05,23,03,10,14.00
2019,05,23,03,11,13.90
2019,05,23,03,12,13.90
2019,05,23,03,13,13.90
2019,05,23,03,14,13.90
2019,05,23,03,15,13.90
2019,05,23,03,16,13.90
2019,05,23,03,17,13.90
2019,05,23,03,18,13.90
2019,05,23,03,19,13.80
2019,05,23,03,20,13.80
2019,05,23,03,21,13.80
2019,05,23,03,22,13.80
2019,05,23,03,23,13.80
2019,05,23,03,24,13.80
2019,05,23,03,25,13.80
2019,05,23,03,26,13.70
2019,05,23,03,27,13.70
2019,05,23,03,28,13.70
2019,05,23,03,29,13.70
2019,05,23,03,30,13.70
2019,05,23,03,31,13.70
2019,05,23,03,32,13.70
2019,05,23,03,33,13.70
2019,05,23,03,34,13.70
2019,05,23,03,35,13.70
2019,05,23,03,36,13.60
2019,05,23,03,37,13.60
2019,05,23,03,38,13.60
2019,05,23,03,39,13.60
2019,05,23,03,40,13.60
2019,05,23,03,41,13.60
2019,05,23,03,42,13.60
2019,05,23,03,43,13.60
2019,05,23,03,44,13.50
2019,05,23,03,45,13.50
2019,05,23,03,46,13.50
2019,05,23,03,47,13.40
2019,05,23,03,48,13.40
2019,05,23,03,49,13.40
2019,05,23,03,50,13.40
2019,05,23,03,51,13.40
2019,05,23,03,52,13.40
2019,05,23,03,53,13.50
2019,05,23,03,54,13.50
2019,05,23,03,55,13.50
2019,05,23,03,56,13.50
2019,05,23,03,57,13.50
2019,05,23,03,58,13.50
2019,05,23,03,59,13.50
2019,05,23,04,00,13.50
2019,05,23,04,01,13.50
2019,05,23,04,02,13.40
2019,05,23,04,03,13.40
2019,05,23,04,04,13.40
2019,05,23,04,05,13.40
2019,05,23,04,06,13.40
2019,05,23,04,07,13.30
2019,05,23,04,08,13.30
2019,05,23,04,09,13.30
2019,05,23,04,10,13.30
2019,05,23,04,11,13.30
2019,05,23,04,12,13.20
2019,05,23,04,13,13.20
2019,05,23,04,14,13.20
2019,05,23,04,15,13.10
2019,05,23,04,16,13.10
2019,05,23,04,17,13.10
2019,05,23,04,18,13.00
2019,05,23,04,19,13.00
2019,05,23,04,20,13.00
2019,05,23,04,21,12.90
2019,05,23,04,22,12.90
2019,05,23,04,23,12.80
2019,05,23,04,24,12.80
2019,05,23,04,25,12.80
2019,05,23,04,26,12.80
2019,05,23,04,27,12.80
2019,05,23,04,28,12.70
2019,05,23,04,29,12.70
2019,05,23,04,30,12.70
2019,05,23,04,31,12.70
2019,05,23,04,32,12.60
2019,05,23,04,33,12.60
2019,05,23,04,34,12.60
2019,05,23,04,35,12.60
2019,05,23,04,36,12.60
2019,05,23,04,37,12.60
2019,05,23,04,38,12.50
2019,05,23,04,39,12.50
2019,05,23,04,40,12.50
2019,05,23,04,41,12.50
2019,05,23,04,42,12.40
2019,05,23,04,43,12.40
2019,05,23,04,44,12.40
2019,05,23,04,45,12.40
2019,05,23,04,46,12.40
2019,05,23,04,47,12.40
2019,05,23,04,48,12.40
2019,05,23,04,49,12.40
2019,05,23,04,50,12.40
2019,05,23,04,51,12.40
2019,05,23,04,52,12.40
2019,05,23,04,53,12.40
2019,05,23,04,54,12.40
2019,05,23,04,55,12.40
2019,05,23,04,56,12.40
2019,05,23,04,57,12.40
2019,05,23,04,58,12.30
2019,05,23,04,59,12.30
2019,05,23,05,00,12.30
2019,05,23,05,01,12.30
2019,05,23,05,02,12.30
2019,05,23,05,03,12.30
2019,05,23,05,04,12.30
2019,05,23,05,05,12.30
2019,05,23,05,06,12.30
2019,05,23,05,07,12.30
2019,05,23,05,08,12.30
2019,05,23,05,09,12.30
2019,05,23,05,10,12.30
2019,05,23,05,11,12.40
2019,05,23,05,12,12.40
2019,05,23,05,13,12.40
2019,05,23,05,14,12.40
2019,05,23,05,15,12.40
2019,05,23,05,16,12.40
2019,05,23,05,17,12.40
2019,05,23,05,18,12.40
2019,05,23,05,19,12.40
2019,05,23,05,20,12.40
2019,05,23,05,21,12.40
2019,05,23,05,22,12.40
2019,05,23,05,23,12.40
2019,05,23,05,24,12.40
2019,05,23,05,25,12.40
2019,05,23,05,26,12.40
2019,05,23,05,27,12.40
2019,05,23,05,28,12.40
2019,05,23,05,29,12.40
2019,05,23,05,30,12.40
2019,05,23,05,31,12.40
2019,05,23,05,32,12.40
2019,05,23,05,33,12.40
2019,05,23,05,34,12.40
2019,05,23,05,35,12.40
2019,05,23,05,36,12.40
2019,05,23,05,37,12.30
2019,05,23,05,38,12.30
2019,05,23,05,39,12.30
2019,05,23,05,40,12.30
2019,05,23,05,41,12.30
2019,05,23,05,42,12.30
2019,05,23,05,43,12.20
2019,05,23,05,44,12.20
2019,05,23,05,45,12.20
2019,05,23,05,46,12.20
2019,05,23,05,47,12.20
2019,05,23,05,48,12.20
2019,05,23,05,49,12.20
2019,05,23,05,50,12.10
2019,05,23,05,51,12.10
2019,05,23,05,52,12.10
2019,05,23,05,53,12.10
2019,05,23,05,54,12.10
2019,05,23,05,55,12.10
2019,05,23,05,56,12.10
2019,05,23,05,57,12.10
2019,05,23,05,58,12.10
2019,05,23,05,59,12.10
2019,05,23,06,00,12.10
2019,05,23,06,01,12.10
2019,05,23,06,02,12.10
2019,05,23,06,03,12.10
2019,05,23,06,04,12.10
2019,05,23,06,05,12.10
2019,05,23,06,06,12.10
2019,05,23,06,07,12.00
2019,05,23,06,08,12.00
2019,05,23,06,09,12.00
2019,05,23,06,10,12.00
2019,05,23,06,11,12.00
2019,05,23,06,12,12.00
2019,05,23,06,13,12.00
2019,05,23,06,14,12.00
2019,05,23,06,15,12.00
2019,05,23,06,16,11.90
2019,05,23,06,17,11.90
2019,05,23,06,18,11.90
2019,05,23,06,19,11.90
2019,05,23,06,20,11.90
2019,05,23,06,21,11.90
2019,05,23,06,22,11.90
2019,05,23,06,23,11.90
2019,05,23,06,24,11.90
2019,05,23,06,25,11.90
2019,05,23,06,26,11.90
2019,05,23,06,27,11.90
2019,05,23,06,28,12.00
2019,05,23,06,29,12.00
2019,05,23,06,30,12.00
2019,05,23,06,31,12.00
2019,05,23,06,32,12.00
2019,05,23,06,33,12.00
2019,05,23,06,34,12.00
2019,05,23,06,35,12.10
2019,05,23,06,36,12.10
2019,05,23,06,37,12.10
2019,05,23,06,38,12.10
2019,05,23,06,39,12.10
2019,05,23,06,40,12.10
2019,05,23,06,41,12.10
2019,05,23,06,42,12.10
2019,05,23,06,43,12.10
2019,05,23,06,44,12.10
2019,05,23,06,45,12.10
2019,05,23,06,46,12.10
2019,05,23,06,47,12.10
2019,05,23,06,48,12.10
2019,05,23,06,49,12.10
2019,05,23,06,50,12.10
2019,05,23,06,51,12.20
2019,05,23,06,52,12.20
2019,05,23,06,53,12.20
2019,05,23,06,54,12.20
2019,05,23,06,55,12.20
2019,05,23,06,56,12.20
2019,05,23,06,57,12.30
2019,05,23,06,58,12.30
2019,05,23,06,59,12.30
2019,05,23,07,00,12.30
2019,05,23,07,01,12.30
2019,05,23,07,02,12.30
2019,05,23,07,03,12.30
2019,05,23,07,04,12.30
2019,05,23,07,05,12.30
2019,05,23,07,06,12.40
2019,05,23,07,07,12.40
2019,05,23,07,08,12.40
2019,05,23,07,09,12.40
2019,05,23,07,10,12.40
2019,05,23,07,11,12.50
2019,05,23,07,12,12.60
2019,05,23,07,13,12.70
2019,05,23,07,14,12.80
2019,05,23,07,15,12.80
2019,05,23,07,16,12.90
2019,05,23,07,17,12.90
2019,05,23,07,18,12.90
2019,05,23,07,19,12.90
2019,05,23,07,20,12.90
2019,05,23,07,21,13.00
2019,05,23,07,22,13.00
2019,05,23,07,23,13.00
2019,05,23,07,24,13.10
2019,05,23,07,25,13.10
2019,05,23,07,26,13.20
2019,05,23,07,27,13.20
2019,05,23,07,28,13.30
2019,05,23,07,29,13.30
2019,05,23,07,30,13.40
2019,05,23,07,31,13.50
2019,05,23,07,32,13.60
2019,05,23,07,33,13.60
2019,05,23,07,34,13.70
2019,05,23,07,35,13.80
2019,05,23,07,36,13.90
2019,05,23,07,37,14.00
2019,05,23,07,38,14.00
2019,05,23,07,39,14.10
2019,05,23,07,40,14.20
2019,05,23,07,41,14.30
2019,05,23,07,42,14.30
2019,05,23,07,43,14.40
2019,05,23,07,44,14.50
2019,05,23,07,45,14.50
2019,05,23,07,46,14.60
2019,05,23,07,47,14.60
2019,05,23,07,48,14.70
2019,05,23,07,49,14.70
2019,05,23,07,50,14.70
2019,05,23,07,51,14.70
2019,05,23,07,52,14.70
2019,05,23,07,53,14.70
2019,05,23,07,54,14.70
2019,05,23,07,55,14.80
2019,05,23,07,56,14.80
2019,05,23,07,57,14.80
2019,05,23,07,58,14.90
2019,05,23,07,59,14.90
2019,05,23,08,00,15.00
2019,05,23,08,01,15.00
2019,05,23,08,02,15.00
2019,05,23,08,03,15.10
2019,05,23,08,04,15.10
2019,05,23,08,05,15.20
2019,05,23,08,06,15.20
2019,05,23,08,07,15.30
2019,05,23,08,08,15.30
2019,05,23,08,09,15.40
2019,05,23,08,10,15.40
2019,05,23,08,11,15.50
2019,05,23,08,12,15.50
2019,05,23,08,13,15.60
2019,05,23,08,14,15.60
2019,05,23,08,15,15.70
2019,05,23,08,16,15.70
2019,05,23,08,17,15.80
2019,05,23,08,18,15.80
2019,05,23,08,19,15.90
2019,05,23,08,20,16.00
2019,05,23,08,21,16.00
2019,05,23,08,22,16.10
2019,05,23,08,23,16.10
2019,05,23,08,24,16.10
2019,05,23,08,25,16.10
2019,05,23,08,26,16.20
2019,05,23,08,27,16.20
2019,05,23,08,28,16.20
2019,05,23,08,29,16.20
2019,05,23,08,30,16.30
2019,05,23,08,31,16.30
2019,05,23,08,32,16.30
2019,05,23,08,33,16.30
2019,05,23,08,34,16.40
2019,05,23,08,35,16.40
2019,05,23,08,36,16.40
2019,05,23,08,37,16.50
2019,05,23,08,38,16.50
2019,05,23,08,39,16.50
2019,05,23,08,40,16.50
2019,05,23,08,41,16.60
2019,05,23,08,42,16.60
2019,05,23,08,43,16.60
2019,05,23,08,44,16.60
2019,05,23,08,45,16.50
2019,05,23,08,46,16.50
2019,05,23,08,47,16.50
2019,05,23,08,48,16.50
2019,05,23,08,49,16.50
2019,05,23,08,50,16.60
2019,05,23,08,51,16.60
2019,05,23,08,52,16.60
2019,05,23,08,53,16.70
2019,05,23,08,54,16.70
2019,05,23,08,55,16.70
2019,05,23,08,56,16.80
2019,05,23,08,57,16.80
2019,05,23,08,58,16.80
2019,05,23,08,59,16.90
2019,05,23,09,00,17.00
2019,05,23,09,01,17.00
2019,05,23,09,02,17.10
2019,05,23,09,03,17.10
2019,05,23,09,04,17.10
2019,05,23,09,05,17.10
2019,05,23,09,06,17.10
2019,05,23,09,07,17.10
2019,05,23,09,08,17.10
2019,05,23,09,09,17.20
2019,05,23,09,10,17.20
2019,05,23,09,11,17.20
2019,05,23,09,12,17.20
2019,05,23,09,13,17.20
2019,05,23,09,14,17.30
2019,05,23,09,15,17.30
2019,05,23,09,16,17.30
2019,05,23,09,17,17.30
2019,05,23,09,18,17.30
2019,05,23,09,19,17.30
2019,05,23,09,20,17.30
2019,05,23,09,21,17.30
2019,05,23,09,22,17.30
2019,05,23,09,23,17.30
2019,05,23,09,24,17.30
2019,05,23,09,25,17.30
2019,05,23,09,26,17.30
2019,05,23,09,27,17.30
2019,05,23,09,28,17.30
2019,05,23,09,29,17.20
2019,05,23,09,30,17.20
2019,05,23,09,31,17.20
2019,05,23,09,32,17.20
2019,05,23,09,33,17.30
2019,05,23,09,34,17.20
2019,05,23,09,35,17.20
2019,05,23,09,36,17.20
2019,05,23,09,37,17.10
2019,05,23,09,38,17.10
2019,05,23,09,39,17.10
2019,05,23,09,40,17.00
2019,05,23,09,41,17.00
2019,05,23,09,42,16.90
2019,05,23,09,43,16.90
2019,05,23,09,44,16.90
2019,05,23,09,45,16.90
2019,05,23,09,46,16.90
2019,05,23,09,47,16.90
2019,05,23,09,48,16.90
2019,05,23,09,49,16.90
2019,05,23,09,50,16.90
2019,05,23,09,51,17.00
2019,05,23,09,52,17.00
2019,05,23,09,53,17.10
2019,05,23,09,54,17.10
2019,05,23,09,55,17.20
2019,05,23,09,56,17.20
2019,05,23,09,57,17.10
2019,05,23,09,58,17.10
2019,05,23,09,59,17.10
2019,05,23,10,00,17.10
2019,05,23,10,01,17.10
2019,05,23,10,02,17.20
2019,05,23,10,03,17.20
2019,05,23,10,04,17.10
2019,05,23,10,05,17.10
2019,05,23,10,06,17.10
2019,05,23,10,07,17.10
2019,05,23,10,08,17.10
2019,05,23,10,09,17.10
2019,05,23,10,10,17.00
2019,05,23,10,11,17.10
2019,05,23,10,12,17.10
2019,05,23,10,13,17.10
2019,05,23,10,14,17.10
2019,05,23,10,15,17.10
2019,05,23,10,16,17.10
2019,05,23,10,17,17.10
2019,05,23,10,18,17.10
2019,05,23,10,19,17.20
2019,05,23,10,20,17.20
2019,05,23,10,21,17.20
2019,05,23,10,22,17.20
2019,05,23,10,23,17.20
2019,05,23,10,24,17.20
2019,05,23,10,25,17.30
2019,05,23,10,26,17.30
2019,05,23,10,27,17.40
2019,05,23,10,28,17.40
2019,05,23,10,29,17.40
2019,05,23,10,30,17.50
2019,05,23,10,31,17.60
2019,05,23,10,32,17.60
2019,05,23,10,33,17.70
2019,05,23,10,34,17.70
2019,05,23,10,35,17.70
2019,05,23,10,36,17.80
2019,05,23,10,37,17.80
2019,05,23,10,38,17.70
2019,05,23,10,39,17.70
2019,05,23,10,40,17.60
2019,05,23,10,41,17.50
2019,05,23,10,42,17.50
2019,05,23,10,43,17.60
2019,05,23,10,44,17.70
2019,05,23,10,45,17.80
2019,05,23,10,46,17.80
2019,05,23,10,47,17.80
2019,05,23,10,48,17.70
2019,05,23,10,49,17.70
2019,05,23,10,50,17.70
2019,05,23,10,51,17.70
2019,05,23,10,52,17.80
2019,05,23,10,53,17.80
2019,05,23,10,54,17.80
2019,05,23,10,55,17.80
2019,05,23,10,56,17.90
2019,05,23,10,57,18.00
2019,05,23,10,58,18.00
2019,05,23,10,59,18.10
2019,05,23,11,00,18.10
2019,05,23,11,01,18.10
2019,05,23,11,02,18.20
2019,05,23,11,03,18.20
2019,05,23,11,04,18.30
2019,05,23,11,05,18.30
2019,05,23,11,06,18.40
2019,05,23,11,07,18.40
2019,05,23,11,08,18.30
2019,05,23,11,09,18.20
2019,05,23,11,10,18.10
2019,05,23,11,11,17.90
2019,05,23,11,12,17.80
2019,05,23,11,13,17.70
2019,05,23,11,14,17.60
2019,05,23,11,15,17.60
2019,05,23,11,16,17.60
2019,05,23,11,17,17.60
2019,05,23,11,18,17.70
2019,05,23,11,19,17.70
2019,05,23,11,20,17.70
2019,05,23,11,21,17.70
2019,05,23,11,22,17.70
2019,05,23,11,23,17.70
2019,05,23,11,24,17.70
2019,05,23,11,25,17.70
2019,05,23,11,26,17.80
2019,05,23,11,27,17.80
2019,05,23,11,28,17.90
2019,05,23,11,29,18.00
2019,05,23,11,30,18.00
2019,05,23,11,31,18.10
2019,05,23,11,32,18.10
2019,05,23,11,33,18.10
2019,05,23,11,34,18.10
2019,05,23,11,35,18.10
2019,05,23,11,36,18.10
2019,05,23,11,37,18.10
2019,05,23,11,38,18.20
2019,05,23,11,39,18.20
2019,05,23,11,40,18.10
2019,05,23,11,41,18.10
2019,05,23,11,42,18.10
2019,05,23,11,43,18.10
2019,05,23,11,44,18.10
2019,05,23,11,45,18.10
2019,05,23,11,46,18.20
2019,05,23,11,47,18.20
2019,05,23,11,48,18.20
2019,05,23,11,49,18.20
2019,05,23,11,50,18.20
2019,05,23,11,51,18.20
2019,05,23,11,52,18.30
2019,05,23,11,53,18.40
2019,05,23,11,54,18.40
2019,05,23,11,55,18.50
2019,05,23,11,56,18.60
2019,05,23,11,57,18.60
2019,05,23,11,58,18.60
2019,05,23,11,59,18.60
2019,05,23,12,00,18.60
2019,05,23,12,01,18.70
2019,05,23,12,02,18.70
2019,05,23,12,03,18.80
2019,05,23,12,04,18.80
2019,05,23,12,05,18.80
2019,05,23,12,06,18.90
2019,05,23,12,07,18.90
2019,05,23,12,08,18.90
2019,05,23,12,09,18.90
2019,05,23,12,10,18.90
2019,05,23,12,11,18.80
2019,05,23,12,12,18.70
2019,05,23,12,13,18.70
2019,05,23,12,14,18.60
2019,05,23,12,15,18.60
2019,05,23,12,16,18.50
2019,05,23,12,17,18.40
2019,05,23,12,18,18.30
2019,05,23,12,19,18.20
2019,05,23,12,20,18.10
2019,05,23,12,21,18.10
2019,05,23,12,22,18.20
2019,05,23,12,23,18.30
2019,05,23,12,24,18.30
2019,05,23,12,25,18.40
2019,05,23,12,26,18.50
2019,05,23,12,27,18.50
2019,05,23,12,28,18.60
2019,05,23,12,29,18.70
2019,05,23,12,30,18.80
2019,05,23,12,31,18.90
2019,05,23,12,32,19.00
2019,05,23,12,33,19.00
2019,05,23,12,34,19.10
2019,05,23,12,35,19.10
2019,05,23,12,36,19.10
2019,05,23,12,37,19.00
2019,05,23,12,38,19.00
2019,05,23,12,39,19.00
2019,05,23,12,40,19.10
2019,05,23,12,41,19.10
2019,05,23,12,42,19.10
2019,05,23,12,43,19.20
2019,05,23,12,44,19.20
2019,05,23,12,45,19.30
2019,05,23,12,46,19.30
2019,05,23,12,47,19.30
2019,05,23,12,48,19.30
2019,05,23,12,49,19.40
2019,05,23,12,50,19.40
2019,05,23,12,51,19.50
2019,05,23,12,52,19.50
2019,05,23,12,53,19.60
2019,05,23,12,54,19.70
2019,05,23,12,55,19.80
2019,05,23,12,56,19.90
2019,05,23,12,57,20.00
2019,05,23,12,58,20.10
2019,05,23,12,59,20.10
2019,05,23,13,00,20.20
2019,05,23,13,01,20.20
2019,05,23,13,02,20.20
2019,05,23,13,03,20.20
2019,05,23,13,04,20.20
2019,05,23,13,05,20.20
2019,05,23,13,06,20.20
2019,05,23,13,07,20.30
2019,05,23,13,08,20.30
2019,05,23,13,09,20.30
2019,05,23,13,10,20.30
2019,05,23,13,11,20.30
2019,05,23,13,12,20.30
2019,05,23,13,13,20.30
2019,05,23,13,14,20.20
2019,05,23,13,15,20.20
2019,05,23,13,16,20.20
2019,05,23,13,17,20.20
2019,05,23,13,18,20.20
2019,05,23,13,19,20.20
2019,05,23,13,20,20.20
2019,05,23,13,21,20.20
2019,05,23,13,22,20.30
2019,05,23,13,23,20.40
2019,05,23,13,24,20.60
2019,05,23,13,25,20.70
2019,05,23,13,26,20.80
2019,05,23,13,27,20.90
2019,05,23,13,28,21.00
2019,05,23,13,29,21.00
2019,05,23,13,30,20.90
2019,05,23,13,31,20.90
2019,05,23,13,32,20.80
2019,05,23,13,33,20.70
2019,05,23,13,34,20.70
2019,05,23,13,35,20.70
2019,05,23,13,36,20.70
2019,05,23,13,37,20.60
2019,05,23,13,38,20.50
2019,05,23,13,39,20.50
2019,05,23,13,40,20.50
2019,05,23,13,41,20.50
2019,05,23,13,42,20.50
2019,05,23,13,43,20.40
2019,05,23,13,44,20.40
2019,05,23,13,45,20.30
2019,05,23,13,46,20.20
2019,05,23,13,47,20.20
2019,05,23,13,48,20.10
2019,05,23,13,49,20.00
2019,05,23,13,50,19.90
2019,05,23,13,51,19.80
2019,05,23,13,52,19.70
2019,05,23,13,53,19.60
2019,05,23,13,54,19.50
2019,05,23,13,55,19.50
2019,05,23,13,56,19.50
2019,05,23,13,57,19.60
2019,05,23,13,58,19.60
2019,05,23,13,59,19.50
2019,05,23,14,00,19.50
2019,05,23,14,01,19.60
2019,05,23,14,02,19.60
2019,05,23,14,03,19.60
2019,05,23,14,04,19.60
2019,05,23,14,05,19.60
2019,05,23,14,06,19.60
2019,05,23,14,07,19.60
2019,05,23,14,08,19.60
2019,05,23,14,09,19.60
2019,05,23,14,10,19.70
2019,05,23,14,11,19.80
2019,05,23,14,12,19.80
2019,05,23,14,13,19.80
2019,05,23,14,14,19.90
2019,05,23,14,15,20.00
2019,05,23,14,16,20.10
2019,05,23,14,17,20.10
2019,05,23,14,18,20.20
2019,05,23,14,19,20.30
2019,05,23,14,20,20.30
2019,05,23,14,21,20.40
2019,05,23,14,22,20.40
2019,05,23,14,23,20.50
2019,05,23,14,24,20.60
2019,05,23,14,25,20.60
2019,05,23,14,26,20.70
2019,05,23,14,27,20.70
2019,05,23,14,28,20.70
2019,05,23,14,29,20.70
2019,05,23,14,30,20.60
2019,05,23,14,31,20.60
2019,05,23,14,32,20.60
2019,05,23,14,33,20.50
2019,05,23,14,34,20.50
2019,05,23,14,35,20.40
2019,05,23,14,36,20.30
2019,05,23,14,37,20.20
2019,05,23,14,38,20.20
2019,05,23,14,39,20.30
2019,05,23,14,40,20.30
2019,05,23,14,41,20.40
2019,05,23,14,42,20.40
2019,05,23,14,43,20.40
2019,05,23,14,44,20.40
2019,05,23,14,45,20.40
2019,05,23,14,46,20.30
2019,05,23,14,47,20.40
2019,05,23,14,48,20.40
2019,05,23,14,49,20.40
2019,05,23,14,50,20.40
2019,05,23,14,51,20.40
2019,05,23,14,52,20.50
2019,05,23,14,53,20.50
2019,05,23,14,54,20.60
2019,05,23,14,55,20.60
2019,05,23,14,56,20.60
2019,05,23,14,57,20.60
2019,05,23,14,58,20.60
2019,05,23,14,59,20.60
2019,05,23,15,00,20.70
2019,05,23,15,01,20.70
2019,05,23,15,02,20.70
2019,05,23,15,03,20.70
2019,05,23,15,04,20.70
2019,05,23,15,05,20.80
2019,05,23,15,06,20.80
2019,05,23,15,07,20.80
2019,05,23,15,08,20.90
2019,05,23,15,09,21.00
2019,05,23,15,10,21.10
2019,05,23,15,11,21.20
2019,05,23,15,12,21.20
2019,05,23,15,13,21.30
2019,05,23,15,14,21.30
2019,05,23,15,15,21.40
2019,05,23,15,16,21.40
2019,05,23,15,17,21.50
2019,05,23,15,18,21.60
2019,05,23,15,19,21.60
2019,05,23,15,20,21.70
2019,05,23,15,21,21.80
2019,05,23,15,22,21.80
2019,05,23,15,23,22.00
2019,05,23,15,24,22.10
2019,05,23,15,25,22.20
2019,05,23,15,26,22.20
2019,05,23,15,27,22.30
2019,05,23,15,28,22.40
2019,05,23,15,29,22.50
2019,05,23,15,30,22.70
2019,05,23,15,31,22.80
2019,05,23,15,32,22.90
2019,05,23,15,33,23.00
2019,05,23,15,34,23.10
2019,05,23,15,35,23.20
2019,05,23,15,36,23.30
2019,05,23,15,37,23.40
2019,05,23,15,38,23.40
2019,05,23,15,39,23.40
2019,05,23,15,40,23.40
2019,05,23,15,41,23.40
2019,05,23,15,42,23.40
2019,05,23,15,43,23.40
2019,05,23,15,44,23.60
2019,05,23,15,45,23.70
2019,05,23,15,46,23.80
2019,05,23,15,47,23.80
2019,05,23,15,48,23.80
2019,05,23,15,49,23.80
2019,05,23,15,50,23.80
2019,05,23,15,51,23.80
2019,05,23,15,52,23.80
2019,05,23,15,53,23.80
2019,05,23,15,54,23.80
2019,05,23,15,55,23.90
2019,05,23,15,56,23.90
2019,05,23,15,57,23.90
2019,05,23,15,58,23.90
2019,05,23,15,59,23.90
2019,05,23,16,00,23.80
2019,05,23,16,01,23.80
2019,05,23,16,02,23.80
2019,05,23,16,03,23.80
2019,05,23,16,04,23.80
2019,05,23,16,05,23.70
2019,05,23,16,06,23.70
2019,05,23,16,07,23.70
2019,05,23,16,08,23.80
2019,05,23,16,09,23.80
2019,05,23,16,10,23.90
2019,05,23,16,11,23.80
2019,05,23,16,12,23.80
2019,05,23,16,13,23.80
2019,05,23,16,14,23.80
2019,05,23,16,15,23.80
2019,05,23,16,16,23.80
2019,05,23,16,17,23.70
2019,05,23,16,18,23.60
2019,05,23,16,19,23.50
2019,05,23,16,20,23.40
2019,05,23,16,21,23.30
2019,05,23,16,22,23.30
2019,05,23,16,23,23.30
2019,05,23,16,24,23.30
2019,05,23,16,25,23.30
2019,05,23,16,26,23.30
2019,05,23,16,27,23.20
2019,05,23,16,28,23.20
2019,05,23,16,29,23.20
2019,05,23,16,30,23.10
2019,05,23,16,31,23.10
2019,05,23,16,32,23.10
2019,05,23,16,33,23.10
2019,05,23,16,34,23.00
2019,05,23,16,35,23.00
2019,05,23,16,36,22.90
2019,05,23,16,37,22.90
2019,05,23,16,38,23.00
2019,05,23,16,39,23.00
2019,05,23,16,40,23.00
2019,05,23,16,41,22.90
2019,05,23,16,42,22.90
2019,05,23,16,43,22.80
2019,05,23,16,44,22.70
2019,05,23,16,45,22.70
2019,05,23,16,46,22.60
2019,05,23,16,47,22.60
2019,05,23,16,48,22.60
2019,05,23,16,49,22.50
2019,05,23,16,50,22.50
2019,05,23,16,51,22.40
2019,05,23,16,52,22.40
2019,05,23,16,53,22.40
2019,05,23,16,54,22.40
2019,05,23,16,55,22.40
2019,05,23,16,56,22.50
2019,05,23,16,57,22.50
2019,05,23,16,58,22.60
2019,05,23,16,59,22.60
2019,05,23,17,00,22.70
2019,05,23,17,01,22.70
2019,05,23,17,02,22.70
2019,05,23,17,03,22.70
2019,05,23,17,04,22.70
2019,05,23,17,05,22.70
2019,05,23,17,06,22.70
2019,05,23,17,07,22.80
2019,05,23,17,08,22.80
2019,05,23,17,09,22.90
2019,05,23,17,10,22.90
2019,05,23,17,11,22.90
2019,05,23,17,12,22.90
2019,05,23,17,13,22.90
2019,05,23,17,14,22.90
2019,05,23,17,15,22.90
2019,05,23,17,16,23.00
2019,05,23,17,17,23.00
2019,05,23,17,18,23.10
2019,05,23,17,19,23.20